Regional Weather Roundup
Issued by NWS Cleveland, OH

Home | Current Version | Previous Version | Graphics & Text | Print | Product List | Glossary On
Versions: 1 2 3 4 5 6 7 8 9 10 11 12 13 14 15 16 17 18 19 20 21 22 23 24 25 26 27 28 29 30 31 32 33 34 35 36 37 38 39 40 41 42 43 44 45 46 47 48 49 50
000
ASUS41 KCLE 011702
RWRCLE
OHIO REGIONAL WEATHER ROUNDUP
NATIONAL WEATHER SERVICE CLEVELAND, OH
100 PM EDT WED JUL 01 2015

NOTE: "FAIR" INDICATES FEW OR NO CLOUDS BELOW 12,000 FEET WITH NO
SIGNIFICANT WEATHER AND/OR OBSTRUCTIONS TO VISIBILITY.

OHZ001>008-015>018-024>027-034-035-043-044-011800-
   NORTHWEST OHIO

CITY           SKY/WX    TMP DP  RH WIND       PRES   REMARKS
DEFIANCE       MOSUNNY   71  58  63 NW12      29.94S
FINDLAY        MOSUNNY   68  58  70 NW6       29.94R
TOLEDO EXPRESS CLOUDY    68  57  68 W8        29.92R
TOLEDO EXEC    CLOUDY    72  59  63 W12       29.93R
LIMA           SUNNY     70  58  65 NW14      29.94F
$$

OHZ009>014-019>023-028>033-038-089-011800-
   NORTHEAST OHIO

CITY           SKY/WX    TMP DP  RH WIND       PRES   REMARKS
CLE-HOPKINS    PTSUNNY   70  61  73 N10       29.93R
CLE-LAKEFRONT  PTSUNNY   68  60  75 NW3       29.91R
CUY CO. ARPT   PTSUNNY   70  61  73 NW9       29.92R
LORAIN-ELYRIA  MOSUNNY   71  61  70 NW9       29.91S
ASHTABULA      CLOUDY    68  59  73 W9        29.91S
AKRON-CANTON   PTSUNNY   69  60  73 W10       29.93R
WOOSTER        PTSUNNY   70  60  70 W8        29.94R
MANSFIELD      CLOUDY    65  60  84 VRB3      29.95R
YOUNGSTOWN     CLOUDY    70  60  70 NW13      29.91R
$$

OHZ042-051>053-060>062-070>072-077>081-011800-
  SOUTHWEST OHIO

CITY           SKY/WX    TMP DP  RH WIND       PRES   REMARKS
CINC-COVINGTON PTSUNNY   76  61  59 CALM      29.96S
CINC-LUNKEN    PTSUNNY   77  63  61 S5        29.95F
HAMILTON       PTSUNNY   78  63  59 VRB6      29.96F
DAYTON         PTSUNNY   76  60  57 N7        29.97R
WRIGHT-PAT AFB NOT AVBL
DAYTON GENERAL SUNNY     74  58  57 SW7       29.95S
WILMINGTON     PTSUNNY   74  58  57 VRB7      29.96R
$$

OHZ036-037-039>041-045>050-054>059-063>069-073>076-082>088-011800-
  CENTRAL AND SOUTHEAST OHIO

CITY           SKY/WX    TMP DP  RH WIND       PRES   REMARKS
COLUMBUS       PTSUNNY   74  59  59 NW7       29.94R
OSU AIRPORT    SUNNY     74  59  59 NW14G21   29.95R
BOLTON FIELD   SUNNY     73  57  56 W12       29.96S
RICKENBACK AFB SUNNY     75  58  56 NW10      29.94R
NEWARK         SUNNY     76  59  55 NW10      29.94S
MARION         MOSUNNY   69  58  67 W7        29.95S
LANCASTER      SUNNY     76  59  55 NW9       29.95R
ZANESVILLE     NOT AVBL
NEW PHILLY     CLOUDY    68  61  78 VRB3      29.94R
$$



USA.gov is the U.S. government's official web portal to all federal, state and local government web resources and services.